Location: site
(53.0000°N, 23.0500°E)
Time: 15:20:23
(UTC+01:00)

SAOCOM 1-A - Pass Details

Date: 20 January 2020
Orbit: 621 x 623 km, 97.9° (Epoch: 25 February)

Event Time Altitude Azimuth Distance (km) Brightness Sun altitude
Rises 06:26:36 0° 225° (SW) 2,898 ? -9.1°
Reaches altitude 10° 06:31:09 10° 270° (W) 2,000 ? -8.5°
Maximum altitude 06:31:38 10° 276° (W) 1,991 ? -8.4°
Enters shadow 06:31:58 10° 281° (W) 1,997 ? -8.4°
